FW1511 Weather Reports


Display with metric or nautical units.
time (UTC)temp
F
wind
direction
speed
MPH
gust
MPH
rain 1hr
in
rain 24hr
in
rain mn
in
humidity
%
barometer
mb
20260505181740 60 155 0.0 2.0 0.00 0.00 0.00 78 1015.5
20260505181502 59 201 0.0 2.0 0.00 0.00 0.00 79 1016.0
20260505180839 59 153 1.0 3.0 0.00 0.00 0.00 79 1015.5
20260505180104 58 127 1.0 4.0 0.00 0.00 0.00 79 1016.0
20260505175939 59 155 1.0 4.0 0.00 0.00 0.00 79 1015.4
20260505175039 58 166 1.0 2.0 0.00 0.00 0.00 81 1015.4
20260505174506 58 181 0.0 3.0 0.00 0.00 0.00 80 1016.0
20260505174139 58 176 1.0 4.0 0.00 0.00 0.00 80 1015.5
20260505173239 58 170 1.0 4.0 0.00 0.00 0.00 80 1015.4
20260505173102 58 209 0.0 3.0 0.00 0.00 0.00 80 1015.8
20260505172339 58 167 1.0 4.0 0.00 0.00 0.00 80 1015.3
20260505171505 57 193 0.0 3.0 0.00 0.00 0.00 81 1015.7
20260505171439 58 153 1.0 3.0 0.00 0.00 0.00 81 1015.2
20260505170539 58 161 1.0 5.0 0.00 0.00 0.00 82 1015.1
20260505170112 57 172 0.0 5.0 0.00 0.00 0.00 81 1015.6
20260505165639 58 0 0.0 0.0 0.00 0.00 0.00 80 1015.2
20260505163045 57 128 0.0 4.0 0.00 0.00 0.00 82 1014.9
20260505163002 57 133 0.0 4.0 0.00 0.00 0.00 82 1015.4
20260505162145 57 142 1.0 3.0 0.00 0.00 0.00 83 1014.9
20260505161616 56 155 0.0 3.0 0.00 0.00 0.00 83 1015.3
20260505161245 57 151 0.0 3.0 0.00 0.00 0.00 83 1014.8
20260505160345 56 144 2.0 5.0 0.00 0.00 0.00 84 1014.9
20260505153002 56 145 0.0 4.0 0.00 0.00 0.00 84 1015.0
20260505151606 56 146 1.0 3.0 0.00 0.00 0.00 85 1015.1
20260505150945 56 142 0.0 3.0 0.00 0.00 0.00 85 1014.5
20260505140645 55 0 0.0 0.0 0.00 0.00 0.00 88 1014.2
20260505124604 54 160 0.0 0.0 0.00 0.00 0.00 88 1014.0
20260505124545 54 0 0.0 0.0 0.00 0.00 0.00 88 1013.5
20260505123645 54 0 0.0 0.0 0.00 0.00 0.00 88 1013.6
20260505123002 54 160 0.0 0.0 0.00 0.00 0.00 88 1014.0
20260505122745 54 0 0.0 0.0 0.00 0.00 0.00 88 1013.4
20260505121845 54 0 0.0 0.0 0.00 0.00 0.00 88 1013.5
20260505121631 54 160 0.0 0.0 0.00 0.00 0.00 88 1013.8
20260505120003 54 152 0.0 0.0 0.00 0.00 0.00 88 1013.9
20260505115145 54 0 0.0 0.0 0.00 0.00 0.00 88 1013.4
20260505114602 54 152 0.0 0.0 0.00 0.00 0.00 88 1013.9
20260505114245 55 0 0.0 0.0 0.00 0.00 0.00 88 1013.2
20260505113347 55 0 0.0 0.0 0.00 0.00 0.00 88 1013.2
20260505113007 54 152 0.0 0.0 0.00 0.00 0.00 88 1013.7
20260505112445 55 0 0.0 0.0 0.00 0.00 0.00 88 1013.2
20260505111603 54 150 0.0 0.0 0.00 0.00 0.00 88 1013.7
20260505111546 55 0 0.0 0.0 0.00 0.00 0.00 88 1013.2
20260505110646 55 0 0.0 0.0 0.00 0.00 0.00 88 1013.2
20260505102145 55 0 0.0 3.0 0.00 0.00 0.00 87 1013.0
20260505101602 55 139 0.0 2.0 0.00 0.00 0.00 86 1013.3
20260505101245 55 0 0.0 2.0 0.00 0.00 0.00 86 1012.8
20260505095446 55 172 1.0 3.0 0.00 0.00 0.00 86 1012.8
20260505094602 55 194 0.0 5.0 0.00 0.00 0.00 87 1013.3
20260505093645 55 150 1.0 4.0 0.00 0.00 0.00 86 1012.6
20260505093003 55 125 0.0 4.0 0.00 0.00 0.00 86 1013.2
20260505092746 55 162 0.0 4.0 0.00 0.00 0.00 87 1012.7
20260505091845 55 152 1.0 5.0 0.00 0.00 0.00 86 1012.6
20260505091604 55 192 0.0 5.0 0.00 0.00 0.00 86 1013.1
20260505090946 55 151 1.0 6.0 0.00 0.00 0.00 86 1012.7
20260505090045 55 206 1.0 5.0 0.00 0.00 0.00 86 1012.6
20260505090002 55 136 1.0 5.0 0.00 0.00 0.00 86 1013.1
20260505085146 55 208 1.0 5.0 0.00 0.00 0.00 86 1012.5
20260505084603 55 214 0.0 5.0 0.00 0.00 0.00 86 1013.0
20260505084246 55 176 1.0 5.0 0.00 0.00 0.00 86 1012.6
20260505083346 55 156 1.0 3.0 0.00 0.00 0.00 87 1012.5
20260505083105 55 190 0.0 3.0 0.00 0.00 0.00 87 1013.0
20260505082446 55 164 1.0 4.0 0.00 0.00 0.00 87 1012.5
20260505081504 55 118 0.0 4.0 0.00 0.00 0.00 87 1013.0
20260505080646 56 162 0.0 3.0 0.00 0.00 0.00 87 1012.5
20260505075745 56 184 1.0 3.0 0.00 0.00 0.00 87 1012.5
20260505074846 56 164 2.0 6.0 0.00 0.00 0.00 86 1012.5
20260505074503 55 112 2.0 7.0 0.00 0.00 0.00 86 1012.9
20260505073946 56 186 1.0 6.0 0.00 0.00 0.00 86 1012.4
20260505073103 55 176 1.0 6.0 0.00 0.00 0.00 87 1012.7
20260505073045 56 177 1.0 4.0 0.00 0.00 0.00 87 1012.2
20260505072146 56 190 1.0 6.0 0.00 0.00 0.00 87 1012.2
20260505071502 55 240 1.0 4.0 0.00 0.00 0.00 87 1012.5
20260505071246 55 199 1.0 4.0 0.00 0.00 0.00 87 1012.0
20260505070346 55 161 2.0 4.0 0.00 0.00 0.00 87 1011.9
20260505070104 55 101 0.0 7.0 0.00 0.00 0.00 87 1012.4
20260505064546 55 169 2.0 5.0 0.00 0.00 0.00 87 1011.7
20260505064504 55 149 2.0 5.0 0.00 0.00 0.00 87 1012.2
20260505063646 55 169 3.0 9.0 0.00 0.00 0.00 87 1011.7
20260505063103 55 252 2.0 10.0 0.00 0.00 0.00 87 1012.2
20260505062746 55 160 2.0 10.0 0.00 0.00 0.00 87 1011.7
20260505061846 55 175 2.0 9.0 0.00 0.00 0.00 87 1011.7
20260505061502 55 158 2.0 13.0 0.00 0.00 0.00 87 1012.2
20260505060946 55 191 2.0 11.0 0.00 0.00 0.00 87 1011.5
20260505060103 55 338 1.0 7.0 0.00 0.00 0.00 87 1012.0
20260505060046 55 173 2.0 7.0 0.00 0.00 0.00 87 1011.5
20260505054503 54 161 1.0 7.0 0.00 0.00 0.00 87 1012.0
20260505054246 55 191 1.0 7.0 0.00 0.00 0.00 87 1011.4
20260505053346 55 195 2.0 7.0 0.00 0.00 0.00 87 1011.4
20260505053108 54 167 1.0 7.0 0.00 0.00 0.00 87 1011.9
20260505052447 55 179 2.0 7.0 0.00 0.00 0.00 87 1011.5
20260505051546 55 179 2.0 7.0 0.00 0.00 0.00 87 1011.5
20260505051502 54 169 1.0 7.0 0.00 0.00 0.00 88 1011.9
20260505050646 55 177 1.0 5.0 0.00 0.00 0.00 87 1011.3
20260505041501 55 226 1.0 7.0 0.00 0.00 0.00 86 1011.3
20260505041246 56 202 2.0 7.0 0.00 0.00 0.00 85 1010.8
20260505040346 56 203 2.0 7.0 0.00 0.00 0.00 85 1010.8
20260505040104 55 234 2.0 7.0 0.00 0.00 0.00 85 1011.3
20260505035446 56 218 2.0 7.0 0.00 0.00 0.00 85 1010.8
20260505034546 56 164 2.0 10.0 0.00 0.00 0.00 84 1010.7
20260505034501 56 223 1.0 10.0 0.00 0.00 0.00 84 1011.1
20260505033646 56 202 2.0 9.0 0.00 0.00 0.00 84 1010.5
20260505033116 56 158 3.0 8.0 0.00 0.00 0.00 84 1010.9
20260505032746 57 217 2.0 7.0 0.00 0.00 0.00 83 1010.4
20260505031846 57 137 2.0 11.0 0.00 0.00 0.00 82 1010.4
20260505031501 57 188 2.0 11.0 0.00 0.00 0.00 82 1010.7
20260505030946 58 117 2.0 12.0 0.00 0.00 0.00 81 1010.3
20260505030046 59 271 3.0 12.0 0.00 0.00 0.00 80 1010.2
20260505025147 60 236 2.0 11.0 0.00 0.00 0.00 78 1010.1
20260505024503 60 5 2.0 8.0 0.00 0.00 0.00 77 1010.5
20260505023346 62 204 2.0 11.0 0.00 0.00 0.00 74 1010.0
20260505023108 62 139 2.0 10.0 0.00 0.00 0.00 74 1010.4
20260505022446 63 238 2.0 10.0 0.00 0.00 0.00 72 1010.0
20260505021546 64 225 2.0 11.0 0.00 0.00 0.00 70 1010.0
20260505021501 64 314 2.0 11.0 0.00 0.00 0.00 69 1010.4
20260505020646 66 299 2.0 10.0 0.00 0.00 0.00 67 1009.9
20260505015746 67 270 2.0 10.0 0.00 0.00 0.00 65 1009.9
20260505014846 68 326 2.0 6.0 0.00 0.00 0.00 65 1009.7
20260505014503 68 23 2.0 6.0 0.00 0.00 0.00 64 1010.1
20260505013946 69 269 2.0 11.0 0.00 0.00 0.00 63 1009.7
20260505013047 69 236 2.0 8.0 0.00 0.00 0.00 62 1009.8
20260505013002 69 224 2.0 8.0 0.00 0.00 0.00 62 1010.2
20260505012146 70 188 2.0 11.0 0.00 0.00 0.00 60 1009.7
20260505011603 69 273 1.0 11.0 0.00 0.00 0.00 60 1010.3
20260505011247 70 251 3.0 11.0 0.00 0.00 0.00 60 1009.7
20260505010346 71 267 3.0 10.0 0.00 0.00 0.00 57 1009.8
20260505010001 71 34 3.0 11.0 0.00 0.00 0.00 56 1010.2
20260505005446 71 286 3.0 11.0 0.00 0.00 0.00 56 1009.9
20260505004602 72 120 2.0 8.0 0.00 0.00 0.00 55 1010.2
20260505004546 72 232 3.0 8.0 0.00 0.00 0.00 55 1009.7
20260505003646 73 216 3.0 11.0 0.00 0.00 0.00 54 1009.6
20260505003002 73 325 3.0 8.0 0.00 0.00 0.00 53 1009.9
20260505002746 74 191 3.0 8.0 0.00 0.00 0.00 54 1009.5
20260505001846 74 204 3.0 10.0 0.00 0.00 0.00 54 1009.5
20260505001601 73 273 3.0 10.0 0.00 0.00 0.00 53 1010.0
20260505000946 74 289 2.0 8.0 0.00 0.00 0.00 53 1009.6
20260505000002 75 333 2.0 7.0 0.00 0.00 0.00 52 1009.9
20260504235147 75 274 2.0 7.0 0.00 0.00 0.00 52 1009.4
20260504234629 75 276 1.0 8.0 0.00 0.00 0.00 51 1009.8
20260504234246 75 273 3.0 8.0 0.00 0.00 0.00 51 1009.4
20260504233346 75 226 3.0 10.0 0.00 0.00 0.00 50 1009.5
20260504233001 75 343 2.0 11.0 0.00 0.00 0.00 51 1009.8
20260504232446 76 156 3.0 11.0 0.00 0.00 0.00 50 1009.3
20260504231606 75 186 2.0 9.0 0.00 0.00 0.00 50 1009.8
20260504231546 76 167 4.0 8.0 0.00 0.00 0.00 51 1009.4
20260504230646 75 122 3.0 13.0 0.00 0.00 0.00 50 1009.5
20260504230002 75 95 2.0 10.0 0.00 0.00 0.00 50 1009.8
20260504225746 76 98 3.0 7.0 0.00 0.00 0.00 50 1009.5
20260504224608 76 19 3.0 12.0 0.00 0.00 0.00 53 1010.1
20260504223946 76 89 4.0 10.0 0.00 0.00 0.00 53 1009.7
20260504223003 76 12 3.0 8.0 0.00 0.00 0.00 53 1010.0
20260504221606 76 96 2.0 10.0 0.00 0.00 0.00 53 1010.1
20260504221246 76 92 3.0 10.0 0.00 0.00 0.00 55 1009.7
20260504220346 76 84 2.0 9.0 0.00 0.00 0.00 54 1009.9
20260504220001 76 101 2.0 7.0 0.00 0.00 0.00 53 1010.4
20260504215446 77 83 3.0 7.0 0.00 0.00 0.00 53 1010.1
20260504214605 76 79 3.0 10.0 0.00 0.00 0.00 56 1010.6
20260504214546 76 48 3.0 9.0 0.00 0.00 0.00 56 1010.1
20260504213646 76 85 2.0 8.0 0.00 0.00 0.00 58 1010.0
20260504213005 76 60 3.0 8.0 0.00 0.00 0.00 57 1010.4
20260504212746 76 72 3.0 8.0 0.00 0.00 0.00 59 1009.9
20260504211846 76 102 3.0 8.0 0.00 0.00 0.00 57 1009.9
20260504211606 75 133 3.0 8.0 0.00 0.00 0.00 57 1010.4
20260504210946 75 75 3.0 8.0 0.00 0.00 0.00 59 1010.2
20260504210046 75 98 3.0 8.0 0.00 0.00 0.00 60 1010.2
20260504210002 74 336 2.0 8.0 0.00 0.00 0.00 60 1010.5
20260504205146 74 74 3.0 10.0 0.00 0.00 0.00 61 1010.2
20260504204639 74 49 2.0 8.0 0.00 0.00 0.00 63 1010.7
20260504204247 75 74 2.0 7.0 0.00 0.00 0.00 61 1010.4
20260504203001 74 105 2.0 6.0 0.00 0.00 0.00 62 1010.8
20260504202446 74 96 2.0 8.0 0.00 0.00 0.00 63 1010.4
20260504201602 74 111 1.0 7.0 0.00 0.00 0.00 63 1010.9
20260504201546 74 88 2.0 6.0 0.00 0.00 0.00 63 1010.5
20260504200647 73 95 2.0 6.0 0.00 0.00 0.00 64 1010.6
20260504200006 72 82 2.0 7.0 0.00 0.00 0.00 66 1011.0
20260504195746 72 94 2.0 6.0 0.00 0.00 0.00 65 1010.6
20260504194847 72 81 2.0 5.0 0.00 0.00 0.00 66 1010.6
20260504194601 72 47 2.0 5.0 0.00 0.00 0.00 65 1011.0
20260504193947 72 93 3.0 8.0 0.00 0.00 0.00 66 1010.5
20260504193046 71 98 2.0 7.0 0.00 0.00 0.00 66 1010.7
20260504193004 71 94 2.0 7.0 0.00 0.00 0.00 67 1011.1
20260504192146 71 91 3.0 8.0 0.00 0.00 0.00 66 1010.8
20260504191602 70 105 2.0 8.0 0.00 0.00 0.00 70 1011.5
20260504191247 70 100 3.0 9.0 0.00 0.00 0.00 70 1011.0
20260504190346 70 89 2.0 6.0 0.00 0.00 0.00 69 1011.1
20260504190008 69 93 1.0 6.0 0.00 0.00 0.00 69 1011.5
20260504184606 68 61 2.0 6.0 0.00 0.00 0.00 72 1011.5
20260504184546 69 30 3.0 6.0 0.00 0.00 0.00 70 1011.1
20260504183647 67 78 3.0 7.0 0.00 0.00 0.00 74 1011.2
20260504183002 66 122 2.0 7.0 0.00 0.00 0.00 73 1011.5
20260504182746 67 80 1.0 7.0 0.00 0.00 0.00 72 1011.0